Temperature
12 11 11 12 12 12 12 12 13 13 13 11 11 12 13 13 13 13 13 13 12 12 11 11 10 10 9 9 9 8 8 8 8 8 8 8 8 9 9 9 9 9 9 9
12 11 12 12 12 12 12 12 12 13 13 11 11 11 13 13 13 13 13 13 12 11 11 10 10 9 9 9 8 8 8 8 8 8 8 8 8 8 8 8 9 9 9 9
12 12 12 12 12 11 12 11 11 11 11 12 11 11 12 13 13 13 12 12 12 11 10 10 10 9 9 8 8 8 7 7 7 7 7 7 7 8 8 8 8 8 8 9
12 12 12 11 11 11 11 11 11 10 9 10 11 9 12 12 11 11 12 12 11 11 10 10 9 9 9 8 8 7 7 7 7 7 7 7 7 7 7 7 7 8 8 8
11 11 11 11 11 11 10 10 10 10 9 9 10 9 11 11 11 10 11 11 11 10 10 10 9 9 8 8 7 7 7 6 6 6 6 6 6 7 7 7 7 7 8 8
10 11 11 11 10 11 10 10 10 9 9 8 10 10 11 10 10 10 10 11 11 10 10 9 9 8 8 7 7 7 7 6 6 6 6 6 6 6 6 6 6 7 7 7
10 10 10 10 9 10 9 9 9 9 9 9 11 10 10 12 11 11 10 11 10 10 9 9 8 8 7 7 7 7 6 6 6 6 6 6 6 6 6 6 6 6 7 7
10 10 10 9 9 9 9 9 8 9 10 11 11 9 11 12 12 12 11 11 10 10 9 9 8 7 7 7 7 6 6 6 6 6 6 6 6 6 6 6 6 6 6 6
10 10 10 10 10 9 10 9 9 8 9 8 10 12 12 11 11 11 11 11 10 10 9 8 8 7 7 7 7 6 6 6 6 5 6 6 6 6 6 6 6 6 6 6
10 9 9 9 8 8 8 9 8 7 8 9 11 11 10 10 9 10 10 10 10 9 9 8 8 7 7 7 7 6 6 6 6 5 5 5 5 5 5 5 5 5 5 5
9 8 8 8 8 8 8 8 8 7 8 8 9 10 12 10 10 9 9 10 10 9 9 8 8 7 7 7 6 6 6 6 5 5 5 5 5 5 5 5 5 5 5 5
8 8 7 8 8 8 9 9 8 7 7 7 7 9 12 11 10 10 10 10 10 9 8 8 7 7 7 6 6 6 6 5 5 5 5 5 5 5 5 5 5 5 5 5
8 6 7 7 7 7 7 8 8 7 6 6 7 9 11 10 10 10 10 10 9 9 8 8 7 7 7 6 6 6 6 5 5 5 5 5 5 5 5 5 5 5 5 5
7 5 6 8 8 6 6 6 7 6 5 6 7 9 10 10 9 9 10 10 9 9 8 7 7 7 6 6 6 6 6 5 5 5 5 5 5 5 4 4 4 4 4 4
6 5 6 7 8 7 7 6 6 6 6 6 8 8 9 9 9 9 9 9 9 8 8 7 7 6 6 6 6 6 5 5 5 5 4 4 4 4 4 4 4 4 4 4
5 5 6 6 8 8 7 7 7 6 7 7 7 8 9 9 10 9 9 9 8 8 7 7 6 6 6 6 6 5 5 5 5 4 4 4 4 4 4 4 4 4 4 4
4 4 5 5 7 7 6 7 7 7 7 7 6 7 8 8 8 8 8 8 7 7 7 6 6 6 6 6 5 5 5 5 4 4 4 4 4 4 4 4 4 3 3 3
4 4 4 5 5 5 8 9 8 8 7 8 7 8 8 8 9 8 8 8 7 6 6 6 6 5 5 5 5 5 5 4 4 4 4 3 3 3 3 3 3 3 3 3
5 4 4 5 5 6 8 8 8 7 7 8 8 8 8 8 8 7 8 7 7 6 6 5 5 5 5 5 4 4 4 4 4 3 3 3 3 3 3 3 3 3 3 2
5 4 4 5 5 6 8 8 8 7 6 7 8 7 7 7 5 5 7 6 6 6 5 5 5 5 4 4 4 4 4 4 3 3 3 3 3 3 3 3 2 2 2 2
3 3 3 4 5 6 8 7 7 6 6 8 8 8 7 6 6 6 6 6 6 5 5 5 4 4 4 4 4 3 3 3 3 3 3 3 3 2 2 2 2 2 2 1
4 3 3 4 4 5 7 6 6 6 8 8 8 8 7 7 6 6 6 5 5 5 4 4 4 4 3 3 3 3 3 3 2 2 2 2 2 2 2 1 1 1 1 1
5 5 5 5 6 7 7 7 8 8 8 8 7 7 6 6 5 5 5 5 4 4 4 4 3 3 3 3 3 2 2 2 2 2 2 2 1 1 1 1 1 1 1 1
5 5 5 5 6 7 8 8 7 7 7 7 6 6 6 5 5 4 4 4 4 3 3 3 3 3 2 2 2 2 2 2 2 1 1 1 1 1 1 0 0 0 0 0
5 4 4 4 6 6 7 7 7 6 6 6 5 5 5 4 4 4 4 3 3 3 3 3 2 2 2 2 2 1 1 1 1 1 1 1 0 0 0 0 -0 -0 -0 -0
4 4 4 4 6 5 6 6 6 6 5 5 5 4 4 4 3 3 3 3 3 2 2 2 2 2 1 1 1 1 1 1 1 0 0 0 -0 -0 -0 -0 -0 -0 -1 -1
Wind_Speed
5 3 4 3 4 5 6 7 9 6 1 5 11 14 13 7 6 6 5 4 4 3 3 2 2 2 2 3 3 3 4 4 3 3 3 3 4 4 4 4 5 6 6 6
4 6 4 2 3 5 7 9 9 6 2 5 11 15 12 7 6 4 4 4 4 3 2 2 3 3 3 4 4 4 4 4 4 4 4 4 4 4 4 4 5 6 6 6
5 1 1 3 4 5 7 7 6 8 10 8 8 10 6 5 4 3 4 3 2 2 3 3 4 4 3 4 4 4 4 5 5 5 4 4 3 3 3 4 4 5 6 6
4 3 4 5 5 5 5 2 5 8 7 5 2 6 5 5 4 4 3 2 1 2 3 3 4 4 4 4 3 4 4 5 5 5 4 5 5 5 5 4 4 4 5 5
3 3 3 5 3 4 2 4 7 8 7 7 5 5 6 4 4 4 3 2 2 2 2 3 3 4 4 3 3 4 4 5 5 5 5 5 6 5 4 4 5 4 4 5
3 1 2 2 1 3 3 5 7 5 3 5 6 6 6 3 4 4 3 2 2 2 2 3 3 3 4 4 4 4 5 5 5 5 5 5 6 6 6 6 5 4 3 3
5 6 4 2 2 2 3 2 1 2 3 5 3 4 6 1 3 3 3 2 2 2 2 3 3 4 5 5 5 5 5 5 5 4 4 5 6 6 7 7 6 5 3 3
5 5 7 4 2 2 4 2 1 3 3 3 1 5 3 4 3 2 2 2 1 1 2 3 3 5 5 5 5 4 5 5 4 4 4 5 5 4 5 6 5 4 4 4
3 2 4 3 1 2 2 2 1 1 4 5 6 4 2 3 2 1 1 1 1 2 2 3 3 5 5 5 4 4 5 5 4 4 5 5 4 4 5 5 4 4 4 4
1 2 4 3 3 3 3 1 1 2 2 5 6 4 3 2 1 1 1 2 2 2 3 4 4 5 5 4 4 4 4 4 4 4 4 4 3 3 4 4 4 4 4 4
2 2 4 4 6 6 5 3 3 3 3 3 5 4 1 3 1 0 1 2 2 3 4 4 5 5 5 4 4 4 4 4 4 4 4 4 3 3 3 3 3 3 3 4
4 2 3 3 1 1 4 5 5 3 4 4 4 5 1 4 3 2 2 2 2 3 4 4 5 5 4 4 4 4 3 4 4 4 3 3 3 2 2 3 3 2 3 3
5 4 2 2 1 1 4 4 4 2 1 4 4 5 0 3 2 2 3 3 3 3 3 4 4 4 4 4 4 3 3 3 3 3 2 2 2 2 2 2 2 2 2 3
4 4 6 5 2 3 5 6 6 6 5 6 8 8 5 3 3 4 4 4 4 4 3 3 4 4 4 4 4 4 4 3 3 3 2 2 2 2 2 1 1 1 1 2
4 4 6 8 7 5 7 8 10 12 10 8 8 9 10 6 5 5 5 4 5 6 5 5 5 5 4 4 5 4 4 3 3 2 2 2 2 2 1 1 1 1 1 1
4 3 3 6 7 7 9 11 12 13 13 14 15 14 9 7 6 6 6 5 5 5 5 5 5 5 5 5 5 5 5 4 3 2 2 2 2 2 1 1 1 1 1 1
5 5 3 4 3 4 9 12 13 10 10 10 14 12 7 6 6 6 5 4 5 5 5 5 5 5 5 4 4 4 4 4 3 3 2 2 2 2 2 1 1 1 1 1
7 6 4 3 1 7 7 4 8 12 13 12 10 8 6 6 6 5 2 2 4 4 4 5 5 5 5 5 4 4 4 4 4 3 3 3 2 2 2 2 1 1 1 1
8 7 5 4 5 8 6 5 6 7 8 9 10 9 6 4 4 4 3 3 3 3 4 4 4 4 4 4 4 4 4 4 4 4 4 3 2 2 3 2 2 2 2 2
7 6 5 5 5 7 3 4 4 2 6 5 7 7 4 1 3 5 3 3 3 3 3 4 4 4 4 4 4 4 4 4 4 5 4 3 3 2 3 3 3 2 2 2
9 8 10 9 8 7 3 4 5 4 6 2 4 4 3 4 5 3 1 2 2 3 3 4 4 4 4 4 4 4 4 4 4 4 4 4 3 3 3 3 2 2 2 2
11 9 9 8 8 9 5 7 7 6 1 1 2 2 2 2 2 1 1 2 3 3 4 4 4 4 4 4 3 3 4 4 4 4 5 5 3 3 3 3 3 3 2 2
9 9 6 9 9 3 8 7 6 2 1 1 1 1 1 0 1 2 2 2 3 3 3 3 3 4 4 3 2 3 4 4 4 4 4 5 4 3 3 3 3 3 2 2
5 5 4 5 6 5 5 5 3 2 1 1 1 1 1 1 2 3 3 3 3 3 3 3 3 3 4 3 2 2 3 3 3 4 4 4 4 4 3 3 3 2 2 2
4 4 6 8 6 4 4 4 3 2 1 1 1 0 0 1 2 3 3 3 3 3 2 2 3 4 4 3 3 3 3 3 3 3 4 4 3 4 3 3 3 3 3 3
7 7 7 8 6 5 4 3 3 3 3 2 1 2 1 2 3 3 3 3 2 3 3 3 3 4 4 3 3 3 2 2 2 3 4 3 3 3 3 3 4 5 6 8
Wind_Direction
193 221 222 217 224 277 306 293 284 284 294 291 272 274 274 249 234 244 247 231 222 234 252 258 271 284 292 297 299 300 288 282 286 279 266 257 250 246 244 232 230 229 224 212
204 232 236 257 268 270 271 276 282 291 302 284 280 279 271 237 212 211 234 239 227 237 264 280 295 300 296 289 287 297 297 288 282 278 268 252 255 250 241 236 231 224 220 215
227 164 152 232 249 266 255 264 292 301 310 264 272 283 230 196 187 195 226 224 220 266 284 285 287 288 299 293 284 295 294 289 284 282 282 275 276 272 261 248 237 225 220 212
231 223 236 242 246 262 267 320 303 299 302 290 276 294 249 181 194 211 229 220 235 267 276 284 289 294 297 294 291 286 289 286 291 282 275 267 262 259 258 248 242 232 225 217
220 173 228 246 253 254 286 317 287 278 275 284 246 244 267 161 206 220 218 225 242 267 283 294 302 300 303 308 303 290 287 284 287 282 274 270 269 263 261 257 251 241 230 222
250 240 260 280 307 266 285 274 259 251 262 269 230 222 268 199 210 211 204 238 255 290 301 291 302 313 308 309 299 288 281 287 285 275 269 264 268 265 264 260 247 236 225 222
213 199 177 199 231 201 261 280 297 282 241 249 173 221 257 176 149 167 185 212 250 272 300 303 313 311 306 303 294 284 281 289 289 284 274 265 265 258 252 252 243 233 228 228
207 200 172 183 208 211 221 241 208 251 276 301 246 241 248 111 94 67 129 178 232 270 288 293 300 296 296 292 288 282 281 282 287 293 287 275 267 261 255 252 244 233 234 228
226 154 133 159 203 287 219 206 352 274 283 279 255 226 163 98 94 28 33 307 278 292 302 301 297 298 296 289 277 271 272 275 284 291 291 281 264 261 262 258 251 230 227 229
272 181 166 145 195 238 284 296 162 203 256 273 270 239 236 183 230 261 281 287 321 326 317 310 303 297 300 293 278 279 273 275 284 283 277 286 273 264 253 248 246 232 220 220
219 174 164 180 206 190 185 205 216 233 254 249 284 282 36 138 148 299 282 311 319 306 304 305 307 305 300 297 286 286 282 286 287 284 280 283 283 278 258 246 240 228 220 211
191 187 218 201 137 10 209 206 188 201 241 232 265 278 77 75 57 41 4 329 303 301 310 312 313 312 312 303 297 296 292 293 290 286 290 291 293 286 269 254 247 231 227 218
157 164 188 203 182 208 243 234 222 228 248 234 238 260 136 56 28 12 336 308 308 306 305 315 318 316 320 324 323 322 319 309 302 302 306 311 315 311 293 277 254 228 225 226
151 190 212 220 216 183 228 228 212 200 215 243 236 258 280 305 309 315 315 318 320 325 331 330 324 320 324 333 332 333 333 329 325 328 323 321 313 314 298 304 307 263 217 218
172 216 239 264 264 243 239 231 217 218 224 235 257 265 276 286 305 313 319 327 335 336 341 337 331 328 334 344 341 341 339 338 346 350 333 324 334 340 340 358 352 1 7 288
182 220 258 266 249 247 253 240 230 231 235 246 265 272 272 296 308 311 314 320 325 330 334 338 338 336 339 342 344 347 346 353 14 11 345 337 353 354 2 17 13 359 335 308
178 181 200 251 241 280 260 232 218 222 222 226 244 251 276 291 295 295 302 320 326 334 334 333 333 332 335 340 345 342 343 359 16 8 353 353 1 356 349 345 12 336 299 302
175 178 201 245 254 240 240 185 205 224 237 231 242 256 260 272 289 291 288 301 315 325 330 333 338 339 343 347 349 347 360 12 12 4 359 358 0 358 353 3 342 308 308 305
185 183 203 211 239 264 252 210 193 211 248 229 238 253 263 280 304 298 319 336 316 317 326 337 336 336 344 346 350 0 6 7 6 359 352 345 343 346 348 347 341 325 320 313
194 193 207 210 225 240 235 165 159 162 262 224 218 240 247 253 282 276 314 347 346 348 349 347 345 349 348 344 356 4 358 359 352 348 346 348 351 352 346 339 336 333 326 310
188 198 213 221 234 256 224 144 130 186 246 221 199 217 215 216 231 262 343 354 344 343 344 348 343 336 330 342 359 357 354 345 340 349 356 354 354 346 336 334 333 331 328 327
187 190 201 204 223 243 171 152 182 219 220 127 167 178 203 238 263 326 359 340 336 337 339 338 334 326 330 348 358 352 339 334 349 359 357 349 343 334 332 333 327 326 325 320
200 199 195 201 217 210 166 188 206 199 228 202 148 116 140 219 276 299 312 311 306 315 316 320 317 315 322 338 351 334 327 340 350 357 351 345 344 340 333 326 321 320 318 305
221 217 233 244 245 236 206 204 202 209 218 75 70 55 116 223 270 294 302 300 301 307 309 317 318 312 311 318 330 324 332 341 350 341 335 339 342 340 339 335 327 318 309 300
220 201 235 256 263 267 234 218 210 182 150 101 33 8 233 257 277 284 291 294 298 307 312 310 299 295 299 309 318 330 339 342 335 329 326 328 330 326 327 326 320 311 301 290
228 222 221 240 242 239 249 232 203 188 199 203 222 259 274 251 265 283 289 292 301 306 310 306 298 300 304 310 312 322 331 330 321 320 319 316 314 315 313 310 315 315 305 308
Height
1474 1477 1476 1473 1473 1473 1472 1471 1468 1463 1463 1467 1463 1458 1452 1451 1452 1453 1453 1454 1455 1457 1457 1457 1456 1455 1454 1453 1451 1450 1447 1446 1444 1443 1442 1441 1440 1440 1440 1441 1442 1443 1444 1446
1474 1475 1471 1470 1471 1472 1471 1471 1467 1462 1461 1464 1460 1454 1447 1445 1447 1449 1450 1451 1452 1453 1453 1453 1452 1451 1450 1448 1447 1445 1443 1441 1440 1439 1438 1437 1435 1435 1436 1436 1437 1439 1440 1441
1470 1470 1468 1469 1470 1471 1469 1470 1468 1467 1463 1458 1459 1451 1442 1442 1443 1445 1447 1447 1449 1449 1449 1449 1448 1447 1446 1444 1442 1440 1438 1437 1435 1434 1433 1432 1431 1430 1431 1431 1432 1434 1435 1437
1467 1467 1468 1468 1468 1470 1469 1466 1467 1467 1470 1464 1460 1463 1442 1440 1442 1442 1444 1445 1446 1446 1446 1446 1445 1443 1442 1440 1438 1436 1434 1432 1430 1429 1428 1427 1426 1425 1425 1427 1428 1429 1431 1432
1465 1466 1467 1468 1467 1468 1468 1467 1467 1467 1467 1467 1458 1464 1445 1439 1442 1441 1441 1442 1443 1444 1443 1443 1442 1440 1439 1437 1434 1432 1430 1428 1426 1424 1423 1422 1421 1421 1422 1422 1422 1423 1425 1427
1465 1466 1467 1466 1467 1467 1467 1467 1465 1464 1467 1469 1453 1456 1445 1439 1438 1438 1439 1440 1440 1440 1440 1440 1439 1437 1435 1433 1431 1428 1426 1423 1422 1420 1419 1418 1417 1416 1416 1417 1417 1418 1420 1421
1463 1464 1465 1466 1467 1467 1468 1470 1471 1470 1468 1459 1444 1449 1444 1432 1431 1433 1435 1437 1438 1438 1437 1436 1435 1433 1431 1429 1427 1425 1422 1420 1418 1416 1415 1414 1413 1412 1412 1412 1413 1414 1414 1416
1462 1463 1463 1464 1465 1467 1466 1467 1474 1473 1463 1452 1447 1449 1436 1429 1429 1430 1432 1434 1435 1435 1435 1434 1433 1431 1428 1426 1423 1421 1419 1416 1414 1412 1411 1410 1409 1408 1408 1408 1408 1409 1410 1412
1458 1460 1461 1462 1463 1465 1464 1467 1466 1470 1466 1465 1449 1434 1430 1429 1429 1430 1431 1431 1432 1433 1432 1431 1430 1428 1425 1423 1420 1418 1416 1413 1411 1410 1408 1406 1406 1405 1404 1404 1404 1406 1407 1409
1456 1462 1461 1463 1465 1465 1465 1463 1469 1471 1470 1463 1443 1435 1435 1432 1430 1429 1429 1430 1430 1430 1430 1428 1427 1425 1422 1420 1418 1415 1413 1410 1409 1407 1405 1403 1402 1402 1401 1401 1402 1403 1404 1405
1456 1462 1463 1463 1462 1462 1465 1466 1465 1466 1465 1465 1456 1441 1425 1427 1426 1427 1428 1428 1428 1428 1427 1425 1424 1421 1419 1417 1414 1412 1410 1407 1405 1404 1403 1401 1400 1399 1398 1398 1398 1399 1400 1401
1455 1459 1461 1458 1457 1457 1458 1458 1462 1469 1466 1462 1461 1447 1424 1424 1425 1426 1427 1427 1427 1426 1425 1423 1421 1419 1416 1413 1411 1408 1406 1404 1402 1401 1400 1398 1397 1396 1395 1395 1395 1396 1396 1398
1454 1461 1462 1459 1462 1462 1459 1457 1458 1461 1463 1462 1460 1445 1425 1425 1425 1426 1426 1426 1425 1424 1423 1421 1419 1416 1413 1410 1407 1405 1403 1402 1400 1399 1397 1395 1394 1394 1393 1392 1392 1393 1393 1394
1453 1458 1457 1453 1449 1456 1459 1457 1457 1461 1465 1458 1448 1437 1429 1427 1426 1426 1425 1424 1423 1422 1421 1419 1416 1413 1410 1408 1406 1403 1401 1399 1398 1396 1395 1394 1393 1392 1391 1390 1390 1390 1390 1391
1452 1456 1452 1448 1445 1448 1450 1451 1452 1455 1452 1452 1439 1434 1428 1426 1426 1424 1424 1422 1421 1420 1418 1416 1414 1411 1409 1406 1404 1402 1399 1397 1395 1394 1393 1392 1391 1390 1390 1389 1388 1388 1388 1388
1450 1453 1451 1448 1442 1443 1444 1442 1444 1445 1444 1441 1437 1432 1425 1425 1424 1423 1422 1421 1420 1418 1416 1414 1412 1410 1407 1405 1403 1400 1398 1396 1394 1392 1391 1390 1389 1389 1388 1387 1386 1386 1386 1385
1448 1452 1453 1448 1442 1442 1442 1431 1434 1435 1433 1434 1434 1427 1423 1423 1422 1421 1420 1419 1418 1417 1415 1413 1411 1409 1407 1405 1402 1399 1397 1395 1393 1391 1390 1389 1388 1387 1386 1385 1385 1384 1384 1384
1445 1448 1450 1447 1447 1449 1426 1419 1421 1424 1423 1424 1422 1420 1420 1420 1419 1419 1418 1418 1416 1415 1413 1411 1409 1407 1405 1404 1401 1399 1397 1395 1393 1391 1389 1388 1387 1386 1385 1384 1383 1383 1382 1382
1438 1444 1445 1444 1442 1432 1421 1417 1418 1421 1420 1416 1417 1416 1417 1417 1417 1416 1416 1416 1415 1413 1412 1410 1408 1406 1404 1402 1400 1398 1396 1394 1392 1390 1389 1387 1386 1385 1384 1383 1381 1381 1380 1380
1435 1438 1442 1440 1439 1431 1415 1413 1412 1418 1420 1412 1412 1413 1414 1415 1419 1416 1414 1413 1412 1412 1410 1409 1407 1405 1403 1402 1400 1397 1395 1393 1391 1389 1388 1386 1385 1384 1382 1381 1380 1379 1378 1378
1434 1436 1436 1434 1432 1421 1411 1411 1413 1422 1417 1408 1408 1409 1411 1413 1414 1413 1412 1411 1411 1410 1408 1407 1405 1404 1402 1401 1399 1396 1394 1392 1391 1389 1387 1385 1384 1382 1381 1379 1378 1377 1376 1375
1422 1425 1427 1428 1427 1419 1407 1410 1412 1410 1406 1406 1406 1407 1409 1410 1410 1410 1410 1409 1408 1407 1406 1405 1404 1402 1401 1399 1398 1395 1393 1392 1390 1388 1386 1384 1382 1381 1379 1377 1376 1375 1374 1372
1410 1410 1410 1411 1407 1401 1401 1402 1402 1403 1404 1405 1405 1406 1407 1408 1408 1408 1408 1407 1406 1406 1404 1403 1402 1401 1399 1398 1396 1394 1393 1391 1389 1387 1385 1383 1381 1379 1377 1375 1374 1372 1371 1370
1404 1404 1404 1403 1399 1397 1398 1398 1400 1401 1402 1403 1404 1405 1405 1406 1406 1406 1406 1405 1404 1403 1402 1401 1400 1398 1397 1396 1394 1393 1391 1390 1388 1385 1383 1381 1379 1377 1375 1374 1372 1371 1369 1368
1399 1402 1402 1401 1396 1396 1396 1397 1398 1399 1400 1401 1402 1403 1403 1404 1404 1404 1403 1402 1401 1401 1400 1399 1397 1396 1395 1393 1392 1391 1389 1388 1386 1383 1382 1379 1377 1375 1373 1372 1370 1369 1367 1367
1394 1396 1398 1395 1393 1395 1394 1395 1396 1397 1397 1398 1399 1400 1401 1401 1401 1401 1400 1400 1399 1398 1397 1396 1395 1393 1392 1391 1390 1388 1387 1385 1383 1381 1379 1377 1376 1374 1372 1369 1367 1366 1365 1364